パンスターズ彗星

C/2015 H2 ( PanSTARRS )

English version
Home page
Updated on January 8, 2018

---------------------------------------------------------------------

・ プロフィール

発見日 2015年4月24日
発見光度 19.7等
発見者 Pan-STARRS 1 telescope (Haleakala)

・ 写真集

・ 軌道要素

Epoch 2016 Sept. 9.0 TT = JDT 2457640.5
T 2016 Sept. 13.25274 TT                                MPCW
q   4.9671550            (2000.0)            P               Q
z  -0.0006482      Peri.  287.90550     +0.17536412     +0.98040393
 +/-0.0000019      Node   350.69206     -0.55230787     +0.02250170
e   1.0032197      Incl.   33.70505     -0.81498677     +0.19570846
From 144 observations 2015 Apr. 20-2017 Nov. 22, mean residual 0".6.

・ 光度変化

        m1 = 7.0 + 5 logΔ + 10.0 log r

---------------------------------------------------------------------

軌道要素はM.P.E.C. 2017-X08に掲載されたものです。
光度グラフはComet for Windowsで作成したものです。

---------------------------------------------------------------------

Copyright(C) Seiichi Yoshida (comet@aerith.net). All rights reserved.